Year,Month,Day,Hour,Minute,Value (Times are PST for insolation in W/m^2)
2008,07,02,00,00,0.00
2008,07,02,00,01,0.00
2008,07,02,00,02,0.00
2008,07,02,00,03,0.00
2008,07,02,00,04,0.00
2008,07,02,00,05,0.00
2008,07,02,00,06,0.00
2008,07,02,00,07,0.00
2008,07,02,00,08,0.00
2008,07,02,00,09,0.00
2008,07,02,00,10,0.00
2008,07,02,00,11,0.00
2008,07,02,00,12,0.00
2008,07,02,00,13,0.00
2008,07,02,00,14,0.00
2008,07,02,00,15,0.00
2008,07,02,00,16,0.00
2008,07,02,00,17,0.00
2008,07,02,00,18,0.00
2008,07,02,00,19,0.00
2008,07,02,00,20,0.00
2008,07,02,00,21,0.00
2008,07,02,00,22,0.00
2008,07,02,00,23,0.00
2008,07,02,00,24,0.00
2008,07,02,00,25,0.00
2008,07,02,00,26,0.00
2008,07,02,00,27,0.00
2008,07,02,00,28,0.00
2008,07,02,00,29,0.00
2008,07,02,00,30,0.00
2008,07,02,00,31,0.00
2008,07,02,00,32,0.00
2008,07,02,00,33,0.00
2008,07,02,00,34,0.00
2008,07,02,00,35,0.00
2008,07,02,00,36,0.00
2008,07,02,00,37,0.00
2008,07,02,00,38,0.00
2008,07,02,00,39,0.00
2008,07,02,00,40,0.00
2008,07,02,00,41,0.00
2008,07,02,00,42,0.00
2008,07,02,00,43,0.00
2008,07,02,00,44,0.00
2008,07,02,00,45,0.00
2008,07,02,00,46,0.00
2008,07,02,00,47,0.00
2008,07,02,00,48,0.00
2008,07,02,00,49,0.00
2008,07,02,00,50,0.00
2008,07,02,00,51,0.00
2008,07,02,00,52,0.00
2008,07,02,00,53,0.00
2008,07,02,00,54,0.00
2008,07,02,00,55,0.00
2008,07,02,00,56,0.00
2008,07,02,00,57,0.00
2008,07,02,00,58,0.00
2008,07,02,00,59,0.00
2008,07,02,01,00,0.00
2008,07,02,01,01,0.00
2008,07,02,01,02,0.00
2008,07,02,01,03,0.00
2008,07,02,01,04,0.00
2008,07,02,01,05,0.00
2008,07,02,01,06,0.00
2008,07,02,01,07,0.00
2008,07,02,01,08,0.00
2008,07,02,01,09,0.00
2008,07,02,01,10,0.00
2008,07,02,01,11,0.00
2008,07,02,01,12,0.00
2008,07,02,01,13,0.00
2008,07,02,01,14,0.00
2008,07,02,01,15,0.00
2008,07,02,01,16,0.00
2008,07,02,01,17,0.00
2008,07,02,01,18,0.00
2008,07,02,01,19,0.00
2008,07,02,01,20,0.00
2008,07,02,01,21,0.00
2008,07,02,01,22,0.00
2008,07,02,01,23,0.00
2008,07,02,01,24,0.00
2008,07,02,01,25,0.00
2008,07,02,01,26,0.00
2008,07,02,01,27,0.00
2008,07,02,01,28,0.00
2008,07,02,01,29,0.00
2008,07,02,01,30,0.00
2008,07,02,01,31,0.00
2008,07,02,01,32,0.00
2008,07,02,01,33,0.00
2008,07,02,01,34,0.00
2008,07,02,01,35,0.00
2008,07,02,01,36,0.00
2008,07,02,01,37,0.00
2008,07,02,01,38,0.00
2008,07,02,01,39,0.00
2008,07,02,01,40,0.00
2008,07,02,01,41,0.00
2008,07,02,01,42,0.00
2008,07,02,01,43,0.00
2008,07,02,01,44,0.00
2008,07,02,01,45,0.00
2008,07,02,01,46,0.00
2008,07,02,01,47,0.00
2008,07,02,01,48,0.00
2008,07,02,01,49,0.00
2008,07,02,01,50,0.00
2008,07,02,01,51,0.00
2008,07,02,01,52,0.00
2008,07,02,01,53,0.00
2008,07,02,01,54,0.00
2008,07,02,01,55,0.00
2008,07,02,01,56,0.00
2008,07,02,01,57,0.00
2008,07,02,01,58,0.00
2008,07,02,01,59,0.00
2008,07,02,02,00,0.00
2008,07,02,02,01,0.00
2008,07,02,02,02,0.00
2008,07,02,02,03,0.00
2008,07,02,02,04,0.00
2008,07,02,02,05,0.00
2008,07,02,02,06,0.00
2008,07,02,02,07,0.00
2008,07,02,02,08,0.00
2008,07,02,02,09,0.00
2008,07,02,02,10,0.00
2008,07,02,02,11,0.00
2008,07,02,02,12,0.00
2008,07,02,02,13,0.00
2008,07,02,02,14,0.00
2008,07,02,02,15,0.00
2008,07,02,02,16,0.00
2008,07,02,02,17,0.00
2008,07,02,02,18,0.00
2008,07,02,02,19,0.00
2008,07,02,02,20,0.00
2008,07,02,02,21,0.00
2008,07,02,02,22,0.00
2008,07,02,02,23,0.00
2008,07,02,02,24,0.00
2008,07,02,02,25,0.00
2008,07,02,02,26,0.00
2008,07,02,02,27,0.00
2008,07,02,02,28,0.00
2008,07,02,02,29,0.00
2008,07,02,02,30,0.00
2008,07,02,02,31,0.00
2008,07,02,02,32,0.00
2008,07,02,02,33,0.00
2008,07,02,02,34,0.00
2008,07,02,02,35,0.00
2008,07,02,02,36,0.00
2008,07,02,02,37,0.00
2008,07,02,02,38,0.00
2008,07,02,02,39,0.00
2008,07,02,02,40,0.00
2008,07,02,02,41,0.00
2008,07,02,02,42,0.00
2008,07,02,02,43,0.00
2008,07,02,02,44,0.00
2008,07,02,02,45,0.00
2008,07,02,02,46,0.00
2008,07,02,02,47,0.00
2008,07,02,02,48,0.00
2008,07,02,02,49,0.00
2008,07,02,02,50,0.00
2008,07,02,02,51,0.00
2008,07,02,02,52,0.00
2008,07,02,02,53,0.00
2008,07,02,02,54,0.00
2008,07,02,02,55,0.00
2008,07,02,02,56,0.00
2008,07,02,02,57,0.00
2008,07,02,02,58,0.00
2008,07,02,02,59,0.00
2008,07,02,03,00,0.00
2008,07,02,03,01,0.00
2008,07,02,03,02,0.00
2008,07,02,03,03,0.00
2008,07,02,03,04,0.00
2008,07,02,03,05,0.00
2008,07,02,03,06,0.00
2008,07,02,03,07,0.00
2008,07,02,03,08,0.00
2008,07,02,03,09,0.00
2008,07,02,03,10,0.00
2008,07,02,03,11,0.00
2008,07,02,03,12,0.00
2008,07,02,03,13,0.00
2008,07,02,03,14,0.00
2008,07,02,03,15,0.00
2008,07,02,03,16,0.00
2008,07,02,03,17,0.00
2008,07,02,03,18,0.00
2008,07,02,03,19,0.00
2008,07,02,03,20,0.00
2008,07,02,03,21,0.00
2008,07,02,03,22,0.00
2008,07,02,03,23,0.00
2008,07,02,03,24,0.00
2008,07,02,03,25,0.00
2008,07,02,03,26,0.00
2008,07,02,03,27,0.00
2008,07,02,03,28,0.00
2008,07,02,03,29,0.00
2008,07,02,03,30,0.00
2008,07,02,03,31,0.00
2008,07,02,03,32,0.00
2008,07,02,03,33,0.00
2008,07,02,03,34,0.00
2008,07,02,03,35,0.00
2008,07,02,03,36,0.00
2008,07,02,03,37,0.00
2008,07,02,03,38,0.00
2008,07,02,03,39,0.00
2008,07,02,03,40,0.00
2008,07,02,03,41,0.00
2008,07,02,03,42,0.00
2008,07,02,03,43,0.00
2008,07,02,03,44,0.00
2008,07,02,03,45,0.00
2008,07,02,03,46,0.00
2008,07,02,03,47,0.00
2008,07,02,03,48,0.00
2008,07,02,03,49,0.00
2008,07,02,03,50,0.00
2008,07,02,03,51,0.00
2008,07,02,03,52,0.00
2008,07,02,03,53,0.00
2008,07,02,03,54,0.00
2008,07,02,03,55,0.00
2008,07,02,03,56,0.00
2008,07,02,03,57,0.00
2008,07,02,03,58,0.00
2008,07,02,03,59,0.00
2008,07,02,04,00,0.00
2008,07,02,04,01,0.00
2008,07,02,04,02,0.00
2008,07,02,04,03,0.00
2008,07,02,04,04,0.00
2008,07,02,04,05,0.00
2008,07,02,04,06,0.00
2008,07,02,04,07,0.00
2008,07,02,04,08,0.00
2008,07,02,04,09,0.00
2008,07,02,04,10,0.00
2008,07,02,04,11,0.00
2008,07,02,04,12,0.00
2008,07,02,04,13,0.00
2008,07,02,04,14,0.00
2008,07,02,04,15,0.00
2008,07,02,04,16,0.00
2008,07,02,04,17,0.00
2008,07,02,04,18,0.00
2008,07,02,04,19,0.00
2008,07,02,04,20,0.00
2008,07,02,04,21,0.00
2008,07,02,04,22,0.00
2008,07,02,04,23,0.00
2008,07,02,04,24,0.00
2008,07,02,04,25,0.00
2008,07,02,04,26,0.00
2008,07,02,04,27,0.00
2008,07,02,04,28,0.00
2008,07,02,04,29,0.00
2008,07,02,04,30,0.00
2008,07,02,04,31,0.00
2008,07,02,04,32,0.00
2008,07,02,04,33,0.00
2008,07,02,04,34,0.00
2008,07,02,04,35,0.00
2008,07,02,04,36,0.00
2008,07,02,04,37,0.00
2008,07,02,04,38,0.00
2008,07,02,04,39,0.00
2008,07,02,04,40,0.00
2008,07,02,04,41,0.00
2008,07,02,04,42,0.00
2008,07,02,04,43,0.00
2008,07,02,04,44,0.00
2008,07,02,04,45,0.00
2008,07,02,04,46,0.00
2008,07,02,04,47,0.00
2008,07,02,04,48,0.00
2008,07,02,04,49,0.00
2008,07,02,04,50,0.00
2008,07,02,04,51,0.00
2008,07,02,04,52,0.00
2008,07,02,04,53,0.00
2008,07,02,04,54,0.00
2008,07,02,04,55,0.00
2008,07,02,04,56,0.00
2008,07,02,04,57,0.00
2008,07,02,04,58,0.00
2008,07,02,04,59,0.00
2008,07,02,05,00,0.00
2008,07,02,05,01,0.00
2008,07,02,05,02,0.00
2008,07,02,05,03,0.00
2008,07,02,05,04,0.00
2008,07,02,05,05,0.00
2008,07,02,05,06,0.00
2008,07,02,05,07,0.00
2008,07,02,05,08,0.00
2008,07,02,05,09,0.00
2008,07,02,05,10,0.00
2008,07,02,05,11,1.30
2008,07,02,05,12,5.00
2008,07,02,05,13,5.00
2008,07,02,05,14,5.00
2008,07,02,05,15,6.50
2008,07,02,05,16,7.00
2008,07,02,05,17,7.00
2008,07,02,05,18,7.00
2008,07,02,05,19,7.00
2008,07,02,05,20,7.00
2008,07,02,05,21,8.70
2008,07,02,05,22,9.00
2008,07,02,05,23,9.50
2008,07,02,05,24,11.00
2008,07,02,05,25,11.60
2008,07,02,05,26,12.00
2008,07,02,05,27,13.60
2008,07,02,05,28,14.30
2008,07,02,05,29,16.60
2008,07,02,05,30,18.00
2008,07,02,05,31,18.00
2008,07,02,05,32,18.80
2008,07,02,05,33,20.70
2008,07,02,05,34,21.40
2008,07,02,05,35,23.00
2008,07,02,05,36,24.00
2008,07,02,05,37,25.00
2008,07,02,05,38,25.80
2008,07,02,05,39,26.00
2008,07,02,05,40,26.30
2008,07,02,05,41,28.00
2008,07,02,05,42,28.00
2008,07,02,05,43,29.40
2008,07,02,05,44,30.00
2008,07,02,05,45,31.80
2008,07,02,05,46,32.00
2008,07,02,05,47,32.40
2008,07,02,05,48,33.00
2008,07,02,05,49,34.30
2008,07,02,05,50,36.60
2008,07,02,05,51,39.10
2008,07,02,05,52,42.50
2008,07,02,05,53,44.00
2008,07,02,05,54,44.00
2008,07,02,05,55,45.30
2008,07,02,05,56,46.00
2008,07,02,05,57,47.00
2008,07,02,05,58,47.50
2008,07,02,05,59,50.70
2008,07,02,06,00,54.60
2008,07,02,06,01,59.20
2008,07,02,06,02,62.40
2008,07,02,06,03,65.10
2008,07,02,06,04,67.50
2008,07,02,06,05,69.40
2008,07,02,06,06,70.00
2008,07,02,06,07,71.40
2008,07,02,06,08,73.70
2008,07,02,06,09,76.00
2008,07,02,06,10,76.30
2008,07,02,06,11,78.00
2008,07,02,06,12,80.20
2008,07,02,06,13,77.80
2008,07,02,06,14,83.30
2008,07,02,06,15,83.10
2008,07,02,06,16,77.30
2008,07,02,06,17,68.70
2008,07,02,06,18,65.60
2008,07,02,06,19,65.50
2008,07,02,06,20,71.20
2008,07,02,06,21,75.90
2008,07,02,06,22,86.20
2008,07,02,06,23,91.00
2008,07,02,06,24,86.10
2008,07,02,06,25,88.90
2008,07,02,06,26,96.60
2008,07,02,06,27,83.90
2008,07,02,06,28,81.50
2008,07,02,06,29,70.00
2008,07,02,06,30,71.30
2008,07,02,06,31,69.70
2008,07,02,06,32,69.00
2008,07,02,06,33,69.70
2008,07,02,06,34,72.00
2008,07,02,06,35,72.00
2008,07,02,06,36,72.00
2008,07,02,06,37,72.00
2008,07,02,06,38,81.00
2008,07,02,06,39,87.20
2008,07,02,06,40,93.50
2008,07,02,06,41,94.80
2008,07,02,06,42,101.60
2008,07,02,06,43,110.20
2008,07,02,06,44,101.20
2008,07,02,06,45,98.40
2008,07,02,06,46,102.80
2008,07,02,06,47,102.90
2008,07,02,06,48,106.70
2008,07,02,06,49,107.30
2008,07,02,06,50,103.70
2008,07,02,06,51,100.50
2008,07,02,06,52,95.30
2008,07,02,06,53,97.00
2008,07,02,06,54,102.90
2008,07,02,06,55,100.60
2008,07,02,06,56,108.70
2008,07,02,06,57,104.80
2008,07,02,06,58,100.00
2008,07,02,06,59,105.50
2008,07,02,07,00,107.50
2008,07,02,07,01,110.70
2008,07,02,07,02,113.20
2008,07,02,07,03,116.90
2008,07,02,07,04,123.00
2008,07,02,07,05,126.10
2008,07,02,07,06,133.10
2008,07,02,07,07,140.70
2008,07,02,07,08,149.00
2008,07,02,07,09,148.60
2008,07,02,07,10,155.50
2008,07,02,07,11,163.00
2008,07,02,07,12,163.00
2008,07,02,07,13,182.50
2008,07,02,07,14,194.60
2008,07,02,07,15,198.20
2008,07,02,07,16,208.00
2008,07,02,07,17,210.30
2008,07,02,07,18,212.60
2008,07,02,07,19,216.00
2008,07,02,07,20,218.80
2008,07,02,07,21,221.80
2008,07,02,07,22,225.10
2008,07,02,07,23,228.50
2008,07,02,07,24,229.00
2008,07,02,07,25,224.40
2008,07,02,07,26,192.00
2008,07,02,07,27,213.60
2008,07,02,07,28,228.40
2008,07,02,07,29,229.20
2008,07,02,07,30,190.40
2008,07,02,07,31,213.00
2008,07,02,07,32,212.40
2008,07,02,07,33,201.10
2008,07,02,07,34,197.00
2008,07,02,07,35,205.60
2008,07,02,07,36,230.10
2008,07,02,07,37,248.50
2008,07,02,07,38,248.10
2008,07,02,07,39,253.00
2008,07,02,07,40,267.80
2008,07,02,07,41,268.50
2008,07,02,07,42,253.10
2008,07,02,07,43,283.40
2008,07,02,07,44,281.50
2008,07,02,07,45,267.30
2008,07,02,07,46,278.30
2008,07,02,07,47,285.70
2008,07,02,07,48,296.00
2008,07,02,07,49,298.10
2008,07,02,07,50,301.70
2008,07,02,07,51,304.70
2008,07,02,07,52,308.60
2008,07,02,07,53,306.70
2008,07,02,07,54,308.40
2008,07,02,07,55,305.80
2008,07,02,07,56,311.00
2008,07,02,07,57,312.00
2008,07,02,07,58,314.30
2008,07,02,07,59,317.30
2008,07,02,08,00,320.00
2008,07,02,08,01,320.00
2008,07,02,08,02,320.00
2008,07,02,08,03,322.80
2008,07,02,08,04,326.50
2008,07,02,08,05,327.00
2008,07,02,08,06,332.00
2008,07,02,08,07,335.00
2008,07,02,08,08,338.40
2008,07,02,08,09,340.10
2008,07,02,08,10,343.90
2008,07,02,08,11,345.90
2008,07,02,08,12,348.30
2008,07,02,08,13,350.50
2008,07,02,08,14,352.40
2008,07,02,08,15,355.40
2008,07,02,08,16,357.00
2008,07,02,08,17,361.30
2008,07,02,08,18,364.40
2008,07,02,08,19,366.30
2008,07,02,08,20,367.90
2008,07,02,08,21,370.20
2008,07,02,08,22,373.30
2008,07,02,08,23,378.00
2008,07,02,08,24,381.70
2008,07,02,08,25,385.00
2008,07,02,08,26,386.40
2008,07,02,08,27,389.40
2008,07,02,08,28,391.70
2008,07,02,08,29,395.90
2008,07,02,08,30,400.00
2008,07,02,08,31,404.10
2008,07,02,08,32,405.00
2008,07,02,08,33,406.60
2008,07,02,08,34,409.60
2008,07,02,08,35,412.90
2008,07,02,08,36,415.70
2008,07,02,08,37,418.00
2008,07,02,08,38,419.00
2008,07,02,08,39,421.30
2008,07,02,08,40,424.40
2008,07,02,08,41,429.20
2008,07,02,08,42,431.30
2008,07,02,08,43,432.80
2008,07,02,08,44,435.10
2008,07,02,08,45,437.50
2008,07,02,08,46,438.00
2008,07,02,08,47,441.40
2008,07,02,08,48,445.00
2008,07,02,08,49,445.00
2008,07,02,08,50,446.60
2008,07,02,08,51,449.40
2008,07,02,08,52,450.00
2008,07,02,08,53,451.00
2008,07,02,08,54,458.10
2008,07,02,08,55,461.40
2008,07,02,08,56,463.10
2008,07,02,08,57,465.50
2008,07,02,08,58,467.70
2008,07,02,08,59,471.40
2008,07,02,09,00,473.70
2008,07,02,09,01,475.50
2008,07,02,09,02,476.00
2008,07,02,09,03,476.00
2008,07,02,09,04,479.90
2008,07,02,09,05,485.60
2008,07,02,09,06,490.00
2008,07,02,09,07,496.30
2008,07,02,09,08,499.70
2008,07,02,09,09,499.00
2008,07,02,09,10,515.30
2008,07,02,09,11,517.70
2008,07,02,09,12,520.00
2008,07,02,09,13,520.00
2008,07,02,09,14,522.70
2008,07,02,09,15,531.00
2008,07,02,09,16,534.30
2008,07,02,09,17,539.20
2008,07,02,09,18,544.60
2008,07,02,09,19,547.00
2008,07,02,09,20,540.90
2008,07,02,09,21,539.80
2008,07,02,09,22,541.40
2008,07,02,09,23,545.80
2008,07,02,09,24,549.80
2008,07,02,09,25,553.10
2008,07,02,09,26,547.40
2008,07,02,09,27,545.00
2008,07,02,09,28,554.50
2008,07,02,09,29,554.90
2008,07,02,09,30,558.70
2008,07,02,09,31,561.00
2008,07,02,09,32,566.00
2008,07,02,09,33,572.30
2008,07,02,09,34,578.20
2008,07,02,09,35,581.10
2008,07,02,09,36,586.10
2008,07,02,09,37,589.00
2008,07,02,09,38,590.60
2008,07,02,09,39,591.00
2008,07,02,09,40,591.80
2008,07,02,09,41,584.60
2008,07,02,09,42,570.00
2008,07,02,09,43,574.90
2008,07,02,09,44,577.20
2008,07,02,09,45,580.00
2008,07,02,09,46,588.20
2008,07,02,09,47,595.30
2008,07,02,09,48,599.40
2008,07,02,09,49,604.10
2008,07,02,09,50,606.00
2008,07,02,09,51,609.60
2008,07,02,09,52,608.00
2008,07,02,09,53,596.50
2008,07,02,09,54,596.30
2008,07,02,09,55,603.50
2008,07,02,09,56,607.50
2008,07,02,09,57,605.10
2008,07,02,09,58,605.80
2008,07,02,09,59,612.30
2008,07,02,10,00,622.30
2008,07,02,10,01,628.00
2008,07,02,10,02,629.00
2008,07,02,10,03,629.50
2008,07,02,10,04,634.50
2008,07,02,10,05,631.00
2008,07,02,10,06,625.90
2008,07,02,10,07,632.20
2008,07,02,10,08,636.00
2008,07,02,10,09,616.00
2008,07,02,10,10,620.00
2008,07,02,10,11,620.10
2008,07,02,10,12,620.10
2008,07,02,10,13,613.00
2008,07,02,10,14,614.70
2008,07,02,10,15,633.50
2008,07,02,10,16,639.80
2008,07,02,10,17,647.10
2008,07,02,10,18,652.30
2008,07,02,10,19,660.50
2008,07,02,10,20,663.00
2008,07,02,10,21,664.30
2008,07,02,10,22,667.80
2008,07,02,10,23,664.40
2008,07,02,10,24,664.80
2008,07,02,10,25,665.60
2008,07,02,10,26,668.30
2008,07,02,10,27,674.70
2008,07,02,10,28,672.30
2008,07,02,10,29,670.50
2008,07,02,10,30,674.50
2008,07,02,10,31,685.10
2008,07,02,10,32,693.50
2008,07,02,10,33,698.40
2008,07,02,10,34,698.50
2008,07,02,10,35,694.40
2008,07,02,10,36,687.40
2008,07,02,10,37,676.60
2008,07,02,10,38,672.00
2008,07,02,10,39,663.20
2008,07,02,10,40,667.40
2008,07,02,10,41,676.50
2008,07,02,10,42,685.90
2008,07,02,10,43,689.00
2008,07,02,10,44,684.50
2008,07,02,10,45,687.50
2008,07,02,10,46,698.90
2008,07,02,10,47,715.00
2008,07,02,10,48,541.30
2008,07,02,10,49,472.40
2008,07,02,10,50,406.00
2008,07,02,10,51,360.00
2008,07,02,10,52,426.80
2008,07,02,10,53,527.00
2008,07,02,10,54,678.30
2008,07,02,10,55,648.60
2008,07,02,10,56,674.30
2008,07,02,10,57,658.50
2008,07,02,10,58,691.80
2008,07,02,10,59,645.70
2008,07,02,11,00,643.00
2008,07,02,11,01,751.00
2008,07,02,11,02,774.60
2008,07,02,11,03,771.40
2008,07,02,11,04,768.20
2008,07,02,11,05,768.40
2008,07,02,11,06,756.20
2008,07,02,11,07,752.20
2008,07,02,11,08,761.40
2008,07,02,11,09,772.00
2008,07,02,11,10,772.00
2008,07,02,11,11,785.00
2008,07,02,11,12,789.90
2008,07,02,11,13,797.30
2008,07,02,11,14,800.50
2008,07,02,11,15,802.00
2008,07,02,11,16,802.00
2008,07,02,11,17,666.30
2008,07,02,11,18,603.00
2008,07,02,11,19,603.00
2008,07,02,11,20,633.50
2008,07,02,11,21,752.70
2008,07,02,11,22,783.30
2008,07,02,11,23,759.70
2008,07,02,11,24,745.00
2008,07,02,11,25,715.00
2008,07,02,11,26,419.90
2008,07,02,11,27,413.10
2008,07,02,11,28,416.00
2008,07,02,11,29,440.00
2008,07,02,11,30,466.20
2008,07,02,11,31,502.70
2008,07,02,11,32,719.20
2008,07,02,11,33,812.90
2008,07,02,11,34,864.80
2008,07,02,11,35,877.00
2008,07,02,11,36,866.60
2008,07,02,11,37,824.00
2008,07,02,11,38,805.30
2008,07,02,11,39,773.50
2008,07,02,11,40,758.00
2008,07,02,11,41,758.00
2008,07,02,11,42,758.00
2008,07,02,11,43,761.80
2008,07,02,11,44,782.90
2008,07,02,11,45,793.70
2008,07,02,11,46,801.30
2008,07,02,11,47,797.40
2008,07,02,11,48,779.50
2008,07,02,11,49,714.60
2008,07,02,11,50,703.40
2008,07,02,11,51,720.70
2008,07,02,11,52,747.10
2008,07,02,11,53,759.30
2008,07,02,11,54,769.60
2008,07,02,11,55,782.50
2008,07,02,11,56,794.10
2008,07,02,11,57,797.50
2008,07,02,11,58,801.80
2008,07,02,11,59,802.70
2008,07,02,12,00,808.30
2008,07,02,12,01,820.60
2008,07,02,12,02,826.00
2008,07,02,12,03,829.70
2008,07,02,12,04,828.50
2008,07,02,12,05,817.90
2008,07,02,12,06,828.40
2008,07,02,12,07,835.90
2008,07,02,12,08,821.60
2008,07,02,12,09,787.90
2008,07,02,12,10,749.70
2008,07,02,12,11,794.40
2008,07,02,12,12,718.30
2008,07,02,12,13,686.00
2008,07,02,12,14,710.90
2008,07,02,12,15,786.50
2008,07,02,12,16,834.90
2008,07,02,12,17,838.70
2008,07,02,12,18,849.00
2008,07,02,12,19,851.90
2008,07,02,12,20,862.50
2008,07,02,12,21,867.00
2008,07,02,12,22,867.00
2008,07,02,12,23,672.50
2008,07,02,12,24,658.00
2008,07,02,12,25,727.40
2008,07,02,12,26,757.50
2008,07,02,12,27,737.30
2008,07,02,12,28,754.50
2008,07,02,12,29,824.40
2008,07,02,12,30,852.50
2008,07,02,12,31,847.10
2008,07,02,12,32,852.30
2008,07,02,12,33,854.80
2008,07,02,12,34,858.40
2008,07,02,12,35,856.60
2008,07,02,12,36,862.00
2008,07,02,12,37,862.50
2008,07,02,12,38,855.40
2008,07,02,12,39,855.00
2008,07,02,12,40,851.50
2008,07,02,12,41,849.50
2008,07,02,12,42,855.30
2008,07,02,12,43,862.30
2008,07,02,12,44,861.00
2008,07,02,12,45,856.30
2008,07,02,12,46,853.10
2008,07,02,12,47,853.90
2008,07,02,12,48,864.70
2008,07,02,12,49,868.90
2008,07,02,12,50,865.90
2008,07,02,12,51,845.40
2008,07,02,12,52,836.70
2008,07,02,12,53,827.60
2008,07,02,12,54,844.80
2008,07,02,12,55,819.60
2008,07,02,12,56,825.40
2008,07,02,12,57,846.00
2008,07,02,12,58,842.70
2008,07,02,12,59,833.90
2008,07,02,13,00,839.10
2008,07,02,13,01,847.00
2008,07,02,13,02,861.70
2008,07,02,13,03,861.50
2008,07,02,13,04,854.10
2008,07,02,13,05,842.00
2008,07,02,13,06,836.00
2008,07,02,13,07,836.60
2008,07,02,13,08,861.70
2008,07,02,13,09,859.40
2008,07,02,13,10,835.30
2008,07,02,13,11,833.00
2008,07,02,13,12,789.50
2008,07,02,13,13,694.40
2008,07,02,13,14,722.00
2008,07,02,13,15,718.20
2008,07,02,13,16,701.20
2008,07,02,13,17,503.00
2008,07,02,13,18,564.00
2008,07,02,13,19,707.00
2008,07,02,13,20,848.10
2008,07,02,13,21,853.20
2008,07,02,13,22,853.00
2008,07,02,13,23,843.70
2008,07,02,13,24,814.00
2008,07,02,13,25,746.90
2008,07,02,13,26,719.70
2008,07,02,13,27,754.90
2008,07,02,13,28,709.60
2008,07,02,13,29,767.20
2008,07,02,13,30,830.00
2008,07,02,13,31,797.30
2008,07,02,13,32,761.60
2008,07,02,13,33,758.00
2008,07,02,13,34,543.00
2008,07,02,13,35,638.30
2008,07,02,13,36,905.00
2008,07,02,13,37,766.10
2008,07,02,13,38,675.00
2008,07,02,13,39,653.20
2008,07,02,13,40,651.60
2008,07,02,13,41,686.60
2008,07,02,13,42,755.80
2008,07,02,13,43,776.20
2008,07,02,13,44,737.50
2008,07,02,13,45,666.20
2008,07,02,13,46,606.00
2008,07,02,13,47,547.60
2008,07,02,13,48,509.50
2008,07,02,13,49,489.00
2008,07,02,13,50,429.30
2008,07,02,13,51,446.60
2008,07,02,13,52,482.30
2008,07,02,13,53,479.30
2008,07,02,13,54,506.00
2008,07,02,13,55,540.50
2008,07,02,13,56,555.00
2008,07,02,13,57,709.30
2008,07,02,13,58,698.90
2008,07,02,13,59,575.70
2008,07,02,14,00,545.00
2008,07,02,14,01,475.60
2008,07,02,14,02,413.80
2008,07,02,14,03,446.50
2008,07,02,14,04,535.50
2008,07,02,14,05,549.60
2008,07,02,14,06,575.00
2008,07,02,14,07,584.50
2008,07,02,14,08,589.00
2008,07,02,14,09,709.30
2008,07,02,14,10,720.90
2008,07,02,14,11,696.10
2008,07,02,14,12,675.40
2008,07,02,14,13,720.00
2008,07,02,14,14,734.00
2008,07,02,14,15,709.80
2008,07,02,14,16,711.70
2008,07,02,14,17,682.00
2008,07,02,14,18,647.10
2008,07,02,14,19,568.10
2008,07,02,14,20,585.60
2008,07,02,14,21,578.90
2008,07,02,14,22,516.50
2008,07,02,14,23,566.50
2008,07,02,14,24,621.50
2008,07,02,14,25,702.00
2008,07,02,14,26,708.20
2008,07,02,14,27,482.30
2008,07,02,14,28,438.30
2008,07,02,14,29,427.20
2008,07,02,14,30,415.00
2008,07,02,14,31,399.40
2008,07,02,14,32,388.60
2008,07,02,14,33,384.70
2008,07,02,14,34,383.00
2008,07,02,14,35,383.00
2008,07,02,14,36,384.20
2008,07,02,14,37,385.00
2008,07,02,14,38,384.90
2008,07,02,14,39,383.00
2008,07,02,14,40,382.00
2008,07,02,14,41,379.00
2008,07,02,14,42,381.00
2008,07,02,14,43,376.70
2008,07,02,14,44,370.90
2008,07,02,14,45,366.20
2008,07,02,14,46,362.30
2008,07,02,14,47,357.80
2008,07,02,14,48,358.30
2008,07,02,14,49,361.30
2008,07,02,14,50,368.70
2008,07,02,14,51,370.10
2008,07,02,14,52,372.20
2008,07,02,14,53,372.10
2008,07,02,14,54,376.80
2008,07,02,14,55,382.10
2008,07,02,14,56,378.40
2008,07,02,14,57,390.70
2008,07,02,14,58,401.60
2008,07,02,14,59,401.00
2008,07,02,15,00,375.60
2008,07,02,15,01,366.70
2008,07,02,15,02,368.00
2008,07,02,15,03,374.00
2008,07,02,15,04,370.20
2008,07,02,15,05,369.00
2008,07,02,15,06,382.30
2008,07,02,15,07,395.10
2008,07,02,15,08,443.60
2008,07,02,15,09,411.90
2008,07,02,15,10,403.70
2008,07,02,15,11,398.50
2008,07,02,15,12,397.00
2008,07,02,15,13,397.00
2008,07,02,15,14,397.60
2008,07,02,15,15,405.30
2008,07,02,15,16,409.00
2008,07,02,15,17,413.00
2008,07,02,15,18,413.00
2008,07,02,15,19,429.20
2008,07,02,15,20,433.20
2008,07,02,15,21,449.00
2008,07,02,15,22,453.50
2008,07,02,15,23,479.80
2008,07,02,15,24,492.00
2008,07,02,15,25,479.60
2008,07,02,15,26,471.00
2008,07,02,15,27,455.00
2008,07,02,15,28,455.00
2008,07,02,15,29,473.70
2008,07,02,15,30,476.50
2008,07,02,15,31,453.40
2008,07,02,15,32,487.20
2008,07,02,15,33,481.20
2008,07,02,15,34,515.60
2008,07,02,15,35,537.80
2008,07,02,15,36,514.70
2008,07,02,15,37,548.90
2008,07,02,15,38,560.50
2008,07,02,15,39,548.80
2008,07,02,15,40,456.00
2008,07,02,15,41,407.60
2008,07,02,15,42,389.00
2008,07,02,15,43,369.40
2008,07,02,15,44,357.20
2008,07,02,15,45,351.50
2008,07,02,15,46,352.90
2008,07,02,15,47,360.10
2008,07,02,15,48,372.50
2008,07,02,15,49,419.50
2008,07,02,15,50,467.00
2008,07,02,15,51,482.00
2008,07,02,15,52,518.90
2008,07,02,15,53,534.50
2008,07,02,15,54,521.10
2008,07,02,15,55,549.70
2008,07,02,15,56,503.60
2008,07,02,15,57,521.50
2008,07,02,15,58,502.70
2008,07,02,15,59,485.70
2008,07,02,16,00,495.00
2008,07,02,16,01,540.90
2008,07,02,16,02,546.90
2008,07,02,16,03,568.60
2008,07,02,16,04,591.00
2008,07,02,16,05,576.90
2008,07,02,16,06,570.00
2008,07,02,16,07,504.00
2008,07,02,16,08,420.70
2008,07,02,16,09,396.30
2008,07,02,16,10,392.00
2008,07,02,16,11,405.20
2008,07,02,16,12,477.80
2008,07,02,16,13,504.00
2008,07,02,16,14,593.70
2008,07,02,16,15,672.10
2008,07,02,16,16,690.20
2008,07,02,16,17,683.40
2008,07,02,16,18,667.90
2008,07,02,16,19,602.80
2008,07,02,16,20,640.70
2008,07,02,16,21,644.60
2008,07,02,16,22,630.00
2008,07,02,16,23,628.00
2008,07,02,16,24,340.70
2008,07,02,16,25,404.90
2008,07,02,16,26,596.40
2008,07,02,16,27,571.00
2008,07,02,16,28,555.00
2008,07,02,16,29,418.90
2008,07,02,16,30,431.80
2008,07,02,16,31,426.60
2008,07,02,16,32,439.00
2008,07,02,16,33,349.40
2008,07,02,16,34,293.50
2008,07,02,16,35,281.20
2008,07,02,16,36,342.10
2008,07,02,16,37,437.30
2008,07,02,16,38,522.30
2008,07,02,16,39,576.80
2008,07,02,16,40,616.50
2008,07,02,16,41,623.30
2008,07,02,16,42,608.50
2008,07,02,16,43,589.10
2008,07,02,16,44,573.50
2008,07,02,16,45,570.00
2008,07,02,16,46,536.50
2008,07,02,16,47,518.00
2008,07,02,16,48,516.80
2008,07,02,16,49,513.50
2008,07,02,16,50,520.60
2008,07,02,16,51,516.00
2008,07,02,16,52,525.50
2008,07,02,16,53,546.90
2008,07,02,16,54,544.40
2008,07,02,16,55,541.70
2008,07,02,16,56,546.50
2008,07,02,16,57,577.50
2008,07,02,16,58,592.80
2008,07,02,16,59,596.50
2008,07,02,17,00,600.50
2008,07,02,17,01,601.70
2008,07,02,17,02,553.80
2008,07,02,17,03,518.80
2008,07,02,17,04,522.00
2008,07,02,17,05,559.00
2008,07,02,17,06,498.50